This demonstration page uses our WeatherBlox Daily Observations layout. Learn more.

Left ArrowRight Arrow

Hourly Observations for April 16, 2020

Temp ( °F °C ) Dew Point ( °F °C ) Humidity (%) Winds ( mph kmh ) Pressure ( in mb ) Visibility ( mi km ) Precip ( " mm )
12:54 am 00:54 Cloudy 42 5.6 19 -7.2 40 40 E 10 17 30.22 1024 10 16.0934 0 0
1:54 am 01:54 Cloudy 40 4.4 22 -5.6 49 49 E 8 13 30.22 1024 10 16.0934 0 0
2:54 am 02:54 Cloudy 39 3.9 25 -3.9 57 57 E 16 26 30.21 1023 10 16.0934 0 0
3:54 am 03:54 Cloudy 38 3.3 24 -4.4 57 57 ENE 14 22 30.22 1023 10 16.0934 0 0
4:54 am 04:54 Cloudy 37 2.8 25 -3.9 62 62 E 14 22 30.23 1024 10 16.0934 0 0
5:54 am 05:54 Cloudy 36 2.2 28 -2.2 73 73 ENE 13 20 30.23 1024 10 16.0934 0 0
6:54 am 06:54 Cloudy 35 1.7 29 -1.7 78 78 ENE 14 22 30.26 1025 10 16.0934 0 0
7:54 am 07:54 Cloudy 35 1.7 30 -1.1 82 82 E 15 24 30.26 1025 8 12.87472 0.001 0.001
8:36 am 08:36 Cloudy 35 1.7 30 -1.1 82 82 E 13 20 30.32 1027 9 14.48406 0 0
8:54 am 08:54 Cloudy 35 1.7 30 -1.1 82 82 E 15 24 30.29 1026 9 14.48406 0 0
9:30 am 09:30 Cloudy with Light Rain 36 2.2 30 -1.1 79 79 ENE 15 24 30.31 1026 8 12.87472 0.001 0.001
9:42 am 09:42 Cloudy 36 2.2 30 -1.1 79 79 E 14 22 30.32 1027 10 16.0934 0.001 0.001
9:52 am 09:52 Cloudy 36 2 30 -1 81 81 E 13 20 30.31 1026 10 16.0934 0.001 0.001
9:54 am 09:54 Cloudy 36 2.2 30 -1.1 79 79 ENE 14 22 30.28 1025 10 16.0934 0.001 0.001
10:54 am 10:54 Cloudy 36 2.2 30 -1.1 79 79 ENE 17 28 30.27 1025 10 16.0934 0 0
11:21 am 11:21 Cloudy with Light Snow 36 2.2 30 -1.1 79 79 ENE 18 30 30.29 1026 7 11.26538 0.001 0.001
11:51 am 11:51 Cloudy with Light Snow 36 2 30 -1 81 81 ENE 16 26 30.27 1025 4 6.43736 0.001 0.001
11:54 am 11:54 Cloudy with Light Snow 36 2.2 31 -0.6 82 82 E 16 26 30.24 1024 3 4.82802 0.001 0.001
12:04 pm 12:04 Cloudy with Light Snow 35 1.7 30 -1.1 82 82 E 14 22 30.26 1025 2 3.21868 0.001 0.001
12:13 pm 12:13 Cloudy with Light Snow 35 1.7 31 -0.6 85 85 E 15 24 30.26 1025 2.5 4.02335 0.001 0.001
12:44 pm 12:44 Cloudy with Light Snow 34 1.1 31 -0.6 89 89 ENE 15 24 30.26 1025 2 3.21868 0.02 0.508
12:54 pm 12:54 Cloudy with Light Snow 33 0.6 31 -0.6 92 92 E 14 22 30.23 1024 2 3.21868 0.03 0.762
1:01 pm 13:01 Cloudy with Snow 33 0.6 31 -0.6 92 92 ENE 14 22 30.25 1024 0.5 0.80467 0.001 0.001
1:28 pm 13:28 Cloudy with Snow 33 0.6 31 -0.6 92 92 ENE 17 28 30.22 1023 0.5 0.80467 0.03 0.762
1:54 pm 13:54 Cloudy with Light Snow 33 0.6 31 -0.6 92 92 ENE 16 26 30.2 1023 0.75 1.207005 0.05 1.27
2:05 pm 14:05 Cloudy with Light Snow 33 0.6 31 -0.6 92 92 NE 15 24 30.23 1024 0.75 1.207005 0.001 0.001
2:25 pm 14:25 Cloudy with Heavy Snow 33 0.6 31 -0.6 92 92 NE 18 30 30.22 1023 0.25 0.402335 0.03 0.762
2:29 pm 14:29 Mostly Cloudy with Heavy Snow 33 0.6 31 -0.6 92 92 NE 17 28 30.22 1023 0.25 0.402335 0.04 1.016
2:47 pm 14:47 Mostly Cloudy with Heavy Snow 33 0.6 31 -0.6 92 92 NE 13 20 30.23 1024 0.25 0.402335 0.1 2.54
2:54 pm 14:54 Mostly Cloudy with Heavy Snow 33 0.6 31 -0.6 92 92 NE 13 20 30.2 1023 0.25 0.402335 0.11 2.794
3:01 pm 15:01 Mostly Cloudy with Snow 33 0.6 31 -0.6 92 92 ENE 12 19 30.23 1024 0.25 0.402335 0.01 0.254
3:10 pm 15:10 Cloudy with Heavy Snow 33 0.6 31 -0.6 92 92 ENE 14 22 30.23 1024 0.25 0.402335 0.03 0.762
3:44 pm 15:44 Mostly Cloudy with Snow 33 0.6 31 -0.6 92 92 NE 10 17 30.24 1024 0.25 0.402335 0.08 2.032
3:54 pm 15:54 Mostly Cloudy with Snow 33 0.6 31 -0.6 92 92 NE 15 24 30.2 1023 0.25 0.402335 0.11 2.794
4:02 pm 16:02 Mostly Cloudy with Snow 33 0.6 30 -1.1 89 89 NE 15 24 30.23 1024 0.25 0.402335 0.01 0.254
4:18 pm 16:18 Cloudy with Snow 33 0.6 30 -1.1 89 89 NE 17 28 30.22 1023 0.5 0.80467 0.04 1.016
4:51 pm 16:51 Cloudy with Light Snow 32 0 30 -1 93 93 NNE 16 26 30.22 1023 1 1.60934 0.06 1.524
4:54 pm 16:54 Cloudy with Light Snow 32 0 30 -1.1 92 92 NNE 16 26 30.19 1023 1 1.60934 0.06 1.524
5:37 pm 17:37 Cloudy with Light Snow 32 0 29 -1.7 88 88 NNE 18 30 30.23 1024 2.5 4.02335 0.01 0.254
5:50 pm 17:50 Windy with Snow Likely 32 0 28 -2 87 87 NNE 21 33 30.22 1023 1.25 2.011675 0.01 0.254
5:54 pm 17:54 Windy with Snow Likely 32 0 29 -1.7 88 88 NNE 20 31 30.19 1023 1.25 2.011675 0.01 0.254
6:54 pm 18:54 Windy with Snow Likely 32 0 29 -1.7 88 88 NE 20 31 30.19 1022 0.75 1.207005 0.04 1.016
7:54 pm 19:54 Windy with Snow Likely 32 0 29 -1.7 88 88 NNE 20 31 30.18 1022 0.75 1.207005 0.02 0.508
8:54 pm 20:54 Mostly Cloudy with Snow 32 0 29 -1.7 88 88 NNE 21 33 30.24 1024 0.5 0.80467 0.02 0.508
9:54 pm 21:54 Mostly Cloudy with Light Snow 32 0 29 -1.7 88 88 NNE 17 28 30.27 1025 0.75 1.207005 0.05 1.27
10:20 pm 22:20 Cloudy with Light Snow 32 0 29 -1.7 88 88 NE 16 26 30.29 1026 1 1.60934 0.02 0.508
10:48 pm 22:48 Cloudy with Light Snow 32 0 28 -2 87 87 NNE 13 20 30.29 1026 2 3.21868 0.03 0.762
10:54 pm 22:54 Cloudy with Light Snow 32 0 29 -1.7 88 88 NNE 15 24 30.26 1025 2.5 4.02335 0.03 0.762
11:05 pm 23:05 Cloudy with Light Snow 32 0 29 -1.7 88 88 NNE 14 22 30.29 1026 3 4.82802 0.001 0.001
11:54 pm 23:54 Cloudy 32 0 29 -1.7 88 88 NNE 13 20 30.24 1024 7 11.26538 0.001 0.001

Powered by AerisWeather